Regional Weather Roundup
Issued by NWS

Home | Current Version | Previous Version | Graphics & Text | Print | Product List | Glossary On
Versions: 1 2 3 4 5 6 7 8 9 10 11 12 13 14 15 16 17 18 19 20 21 22 23 24 25 26 27 28 29 30 31 32 33 34 35 36 37 38 39 40 41 42 43 44 45 46 47 48 49 50
000
ASUS43 KDTX 290610
RWRMI
MICHIGAN HOURLY REGIONAL WEATHER ROUNDUP
NATIONAL WEATHER SERVICE DETROIT/PONTIAC MI
200 AM EDT MON AUG 29 2016

NOTE: "FAIR" INDICATES FEW OR NO CLOUDS BELOW 12,000 FEET WITH NO
SIGNIFICANT WEATHER AND/OR OBSTRUCTION TO VISIBILITY.

MIZ047>049-052>055-059>063-066>070-074>076-081>083-290700-
SOUTHEAST LOWER MICHIGAN

CITY           SKY/WX    TMP DP  RH WIND       PRES   REMARKS
ADRIAN         FAIR      69  69 100 CALM      30.24S
6HR MIN TEMP:  69; 6HR MAX TEMP:  77;

ALMA           FAIR      63  63 100 W8        30.25S FOG
6HR MIN TEMP:  63; 6HR MAX TEMP:  76;

ANN ARBOR      FAIR      70  68  93 N3        30.23S
BAD AXE        FOG       64  64 100 CALM      30.26S VSB 1
CARO           MOCLDY    61  61  98 CALM      30.24S FOG
DETROIT CITY   FAIR      71  67  87 CALM      30.24S
6HR MIN TEMP:  70; 6HR MAX TEMP:  82;

DETROIT        FAIR      72  69  90 NE5       30.23S
6HR MIN TEMP:  72; 6HR MAX TEMP:  80; 6HR PCP: TRACE;

FLINT          FAIR      66  63  90 CALM      30.24S
6HR MIN TEMP:  64; 6HR MAX TEMP:  79;

GROSSE ILE     FAIR      71  68  90 NE7       30.22S
6HR MIN TEMP:  71; 6HR MAX TEMP:  76;

HILLSDALE      FAIR      67  66  96 CALM      30.24F FOG
6HR MIN TEMP:  51; 6HR MAX TEMP:  84;

HOWELL         FAIR      65  64  96 CALM      30.25S
6HR MIN TEMP:  65; 6HR MAX TEMP:  77;


CITY           SKY/WX    TMP DP  RH WIND       PRES   REMARKS
JACKSON        FAIR      67  67 100 CALM      30.24F
6HR MIN TEMP:  66; 6HR MAX TEMP:  79;

LAMBERTVILLE   FOG       70  68  94 CALM      30.23S VSB 1/4
6HR MIN TEMP:  70; 6HR MAX TEMP:  75;

LANSING        FAIR      66  64  93 CALM      30.25S
6HR MIN TEMP:  66; 6HR MAX TEMP:  78;

LAPEER         CLOUDY    61  61  98 CALM      30.25S FOG
6HR MIN TEMP:  61; 6HR MAX TEMP:  75;

MASON          FOG       63  63 100 CALM      30.25S VSB 3/4
MONROE         FAIR      69  69 100 CALM      30.22S
6HR MIN TEMP:  67; 6HR MAX TEMP:  74;

MT. CLEMENS    FAIR      68  68 100 N2        30.22S
6HR MIN TEMP:  67; 6HR MAX TEMP:  78;

PONTIAC        FAIR      67  65  93 CALM      30.24S
6HR MIN TEMP:  67; 6HR MAX TEMP:  79;

PORT HURON     FOG       63  63 100 CALM      30.24S VSB 1/4
TRI CITIES     FAIR      66  65  96 N6        30.25R
6HR MIN TEMP:  66; 6HR MAX TEMP:  77;

MIDLAND        FAIR      63  63  98 NE3       30.24S
6HR MIN TEMP:  63; 6HR MAX TEMP:  74;

TROY           FAIR      72  67  86 NE5       30.26S
SAGINAW HB     FAIR      63  61  94 N8        30.24R
$$
MIZ043>046-050>051-056>058-064>065-071>073-077>080-290700-
SOUTHWEST LOWER MICHIGAN

CITY           SKY/WX    TMP DP  RH WIND       PRES   REMARKS
BATTLE CREEK   FAIR      68  68 100 CALM      30.25R
6HR MIN TEMP:  67; 6HR MAX TEMP:  76;

BENTON HARBOR  FAIR      66  63  90 CALM      30.22F
6HR MIN TEMP:  66; 6HR MAX TEMP:  75;

BIG RAPIDS     FAIR      63  62  96 CALM      30.25F
6HR MIN TEMP:  63; 6HR MAX TEMP:  75;

COLDWATER      FOG       69  69 100 CALM      30.25S VSB 1/4
6HR MIN TEMP:  69; 6HR MAX TEMP:  76;

FREMONT        FAIR      62  61  98 CALM      30.24S
HOLLAND        FAIR      64  62  93 CALM      30.24S
6HR MIN TEMP:  64; 6HR MAX TEMP:  75;

GRAND RAPIDS   FAIR      68  64  87 CALM      30.24F
6HR MIN TEMP:  67; 6HR MAX TEMP:  78;

IONIA          FAIR      64  62  93 CALM      30.24S
6HR MIN TEMP:  64; 6HR MAX TEMP:  75;

KALAMAZOO      FAIR      69  67  93 CALM      30.24S FOG
6HR MIN TEMP:  69; 6HR MAX TEMP:  80;

LUDINGTON        N/A     59  59 100 CALM      30.23S FOG
6HR MIN TEMP:  57; 6HR MAX TEMP:  67;

MARSHALL       MOCLDY    68  66  94 SE3       30.24S
MOUNT PLEASANT FAIR      65  63  93 N5        30.24F
6HR MIN TEMP:  65; 6HR MAX TEMP:  77;

MUSKEGON       FAIR      65  63  93 CALM      30.23F
6HR MIN TEMP:  65; 6HR MAX TEMP:  74;

SOUTH HAVEN    FAIR      66  65  97 CALM      30.23S
$$
MIZ016>042-290700-
NORTHERN LOWER MICHIGAN

CITY           SKY/WX    TMP DP  RH WIND       PRES   REMARKS
ALPENA         FAIR      56  53  90 CALM      30.26S
6HR MIN TEMP:  56; 6HR MAX TEMP:  74;

BEAVER ISLAND  FAIR      58  58 100 NE3       30.26R
6HR MIN TEMP:  56; 6HR MAX TEMP:  69;

BELLAIRE       FOG       56  55  96 CALM      30.26S VSB 1
6HR MIN TEMP:  55; 6HR MAX TEMP:  69;

CADILLAC       FAIR      56  55  96 CALM      30.26S
CHARLEVOIX     FAIR      62  62  99 CALM      30.28R
FRANKFORT      FAIR      58  56  93 CALM      30.24S
GAYLORD        FAIR      58  53  84 CALM      30.28R
6HR MIN TEMP:  57; 6HR MAX TEMP:  72;

GRAYLING       FOG       53  51  95 CALM      30.28S VSB 3/4
HARBOR SPRINGS FAIR      60  59  98 CALM      30.26S
HOUGHTON LAKE  FAIR      57  56  96 CALM      30.27F FOG
6HR MIN TEMP:  57; 6HR MAX TEMP:  75;

MANISTEE       FAIR      58  57  97 SE3       30.24S
OSCODA         FAIR      59  59 100 CALM      30.25S
6HR MIN TEMP:  59; 6HR MAX TEMP:  69;

PELLSTON       FAIR      54  53  97 CALM      30.27S FOG
6HR MIN TEMP:  55; 6HR MAX TEMP:  70;

ROGERS CITY    FAIR      59  56  88 CALM      30.27S
TRAVERSE CITY  FAIR      62  59  90 CALM      30.24R
6HR MIN TEMP:  61; 6HR MAX TEMP:  73;

$$
MIZ007>008-015-290700-
EASTERN UPPER MICHIGAN

CITY           SKY/WX    TMP DP  RH WIND       PRES   REMARKS
KINROSS        FAIR      59  57  93 N3        30.27S
6HR MIN TEMP:  57; 6HR MAX TEMP:  65;

MACKINAC ISLAN FAIR      60  60 100 NE3       30.26S
6HR MIN TEMP:  59; 6HR MAX TEMP:  69;

NEWBERRY       FAIR      55  55  97 CALM      30.28R
6HR MIN TEMP:  53; 6HR MAX TEMP:  67;

S. S. MARIE    FAIR      57  56  96 CALM      30.26S
6HR MIN TEMP:  56; 6HR MAX TEMP:  65;

$$
MIZ004>006-011>014-085-290700-
CENTRAL UPPER MICHIGAN

CITY           SKY/WX    TMP DP  RH WIND       PRES   REMARKS
MANISTIQUE     FAIR      58  56  92 CALM      30.26R
6HR MIN TEMP:  56; 6HR MAX TEMP:  69;

ESCANABA       MOCLDY    57  57 100 CALM      30.24S
6HR MIN TEMP:  57; 6HR MAX TEMP:  72;

MENOMINEE      FAIR     N/A N/A N/A CALM      30.24S FOG
SAWYER-GWINN   FAIR      55  51  86 CALM      30.26R
6HR MIN TEMP:  53; 6HR MAX TEMP:  66;

$$
MIZ001>003-009>011-084-290700-
WESTERN UPPER MICHIGAN

CITY           SKY/WX    TMP DP  RH WIND       PRES   REMARKS
IRON MOUNTAIN  FAIR      60  57  89 CALM      30.23S
6HR MIN TEMP:  58; 6HR MAX TEMP:  76;

HOUGHTON       FAIR      61  58  90 E7        30.22S
6HR MIN TEMP:  60; 6HR MAX TEMP:  69;

IRONWOOD       FAIR      64  61  90 E3        30.19F
6HR MIN TEMP:  60; 6HR MAX TEMP:  72;

$$

ABBREVIATIONS USED IN REMARKS
   TC - TEMPERATURE IN CELSIUS
  WCI - WIND CHILL INDEX
   HX - HEAT INDEX
  VSB - VISIBILITY




USA.gov is the U.S. government's official web portal to all federal, state and local government web resources and services.